TimeEDT,TemperatureF,Dew PointF,Humidity,Sea Level PressureIn,VisibilityMPH,Wind Direction,Wind SpeedMPH,Gust SpeedMPH,PrecipitationIn,Events,Conditions,WindDirDegrees,DateUTC
12:53 AM,35.1,33.1,92,29.68,4.0,NNW,26.5,36.8,0.01,Snow,Light Snow,340,2012-10-30 04:53:00
1:53 AM,35.1,33.1,92,29.64,5.0,NNW,23.0,35.7,0.01,Snow,Light Snow,340,2012-10-30 05:53:00
2:34 AM,35.6,33.8,93,29.58,3.0,NNW,25.3,34.5,0.01,Snow,Light Snow,330,2012-10-30 06:34:00
2:46 AM,35.6,33.8,93,29.57,2.5,NNW,24.2,35.7,0.01,Snow,Light Snow,330,2012-10-30 06:46:00
2:53 AM,35.6,33.8,93,29.56,3.0,NNW,27.6,38.0,N/A,Snow,Light Snow,340,2012-10-30 06:53:00
3:19 AM,35.6,33.8,93,29.55,4.0,NNW,21.9,43.7,0.00,Snow,Light Snow,340,2012-10-30 07:19:00
3:53 AM,35.1,33.1,92,29.55,4.0,NNW,25.3,36.8,0.00,Snow,Light Snow,340,2012-10-30 07:53:00
4:53 AM,36.0,33.1,89,29.51,4.0,NNW,29.9,46.0,0.00,Snow,Light Snow,330,2012-10-30 08:53:00
5:53 AM,35.1,33.1,92,29.50,3.0,NNW,24.2,39.1,0.00,Rain,Light Rain,340,2012-10-30 09:53:00
6:28 AM,35.6,35.6,100,29.48,2.5,NNW,25.3,40.3,0.00,Rain-Snow,Light Snow,340,2012-10-30 10:28:00
6:31 AM,35.6,35.6,100,29.47,3.0,NNW,24.2,36.8,0.00,Rain-Snow,Light Snow,340,2012-10-30 10:31:00
6:53 AM,34.0,34.0,100,29.49,3.0,North,25.3,33.4,0.00,Rain-Snow,Light Snow,350,2012-10-30 10:53:00
7:02 AM,33.8,33.8,100,29.47,3.0,NNW,23.0,33.4,0.00,Rain-Snow,Light Snow,340,2012-10-30 11:02:00
7:19 AM,33.8,33.8,100,29.47,3.0,NNW,23.0,35.7,0.00,Rain-Snow,Light Snow,340,2012-10-30 11:19:00
7:53 AM,34.0,34.0,100,29.48,3.0,NNW,20.7,36.8,0.01,Rain-Snow,Light Snow,340,2012-10-30 11:53:00
8:35 AM,35.6,33.8,93,29.46,2.0,North,19.6,35.7,0.01,Rain,Light Rain,350,2012-10-30 12:35:00
8:48 AM,35.6,33.8,93,29.46,3.0,North,24.2,39.1,0.02,Rain,Light Rain,350,2012-10-30 12:48:00
8:53 AM,36.0,34.0,93,29.48,3.0,NNW,24.2,35.7,0.02,Rain,Light Rain,340,2012-10-30 12:53:00
9:49 AM,37.4,35.6,93,29.46,4.0,North,24.2,36.8,0.00,,Light Drizzle,350,2012-10-30 13:49:00
9:53 AM,37.0,35.1,93,29.47,4.0,North,25.3,34.5,0.00,,Light Drizzle,350,2012-10-30 13:53:00
10:15 AM,37.4,35.6,93,29.45,2.5,NNW,23.0,36.8,0.00,,Light Drizzle,340,2012-10-30 14:15:00
10:48 AM,37.4,35.6,93,29.45,3.0,NNW,24.2,34.5,0.00,,Light Drizzle,340,2012-10-30 14:48:00
10:53 AM,37.9,37.0,97,29.47,3.0,North,23.0,38.0,0.00,,Light Drizzle,350,2012-10-30 14:53:00
11:29 AM,39.2,37.4,93,29.45,2.5,North,21.9,35.7,0.00,Rain,Light Rain,350,2012-10-30 15:29:00
11:36 AM,39.2,37.4,93,29.45,3.0,North,25.3,32.2,0.00,Rain,Light Rain,350,2012-10-30 15:36:00
11:53 AM,39.0,37.9,96,29.47,3.0,North,20.7,36.8,0.00,Rain,Light Rain,350,2012-10-30 15:53:00
12:31 PM,39.2,39.2,100,29.44,4.0,NNW,24.2,33.4,0.00,Rain,Light Rain,340,2012-10-30 16:31:00
12:38 PM,39.2,39.2,100,29.44,4.0,NNW,24.2,34.5,0.00,Rain,Light Rain,340,2012-10-30 16:38:00
12:53 PM,41.0,39.9,96,29.45,4.0,NNW,24.2,33.4,0.00,Rain,Light Rain,340,2012-10-30 16:53:00
1:25 PM,39.2,37.4,93,29.44,3.0,North,20.7,34.5,0.00,Rain,Light Rain,350,2012-10-30 17:25:00
1:53 PM,41.0,37.9,89,29.45,5.0,NNW,18.4,36.8,0.00,Rain,Light Rain,340,2012-10-30 17:53:00
2:44 PM,41.0,39.2,93,29.43,6.0,North,21.9,38.0,0.00,,Overcast,350,2012-10-30 18:44:00
2:53 PM,41.0,39.0,93,29.45,5.0,NNW,21.9,33.4,0.00,Rain,Light Rain,340,2012-10-30 18:53:00
3:13 PM,39.2,39.2,100,29.42,4.0,NNW,20.7,32.2,0.00,Rain,Light Rain,340,2012-10-30 19:13:00
3:53 PM,39.9,37.9,93,29.46,4.0,NNW,19.6,29.9,0.00,Rain,Light Rain,340,2012-10-30 19:53:00
4:10 PM,39.2,37.4,93,29.44,3.0,NNW,18.4,27.6,0.00,Rain,Light Rain,340,2012-10-30 20:10:00
4:24 PM,39.2,37.4,93,29.44,2.5,NNW,19.6,27.6,0.00,,Light Drizzle,340,2012-10-30 20:24:00
4:53 PM,39.0,39.0,100,29.47,2.5,NNW,20.7,33.4,0.00,,Light Drizzle,330,2012-10-30 20:53:00
5:07 PM,39.2,39.2,100,29.45,3.0,NNW,20.7,29.9,0.00,,Light Drizzle,340,2012-10-30 21:07:00
5:20 PM,39.2,39.2,100,29.45,2.5,NNW,19.6,31.1,0.00,,Light Drizzle,340,2012-10-30 21:20:00
5:53 PM,37.9,37.9,100,29.48,2.5,NNW,18.4,27.6,0.00,,Light Drizzle,330,2012-10-30 21:53:00
6:06 PM,37.4,37.4,100,29.46,3.0,NNW,19.6,28.8,0.01,Rain,Light Rain,330,2012-10-30 22:06:00
6:20 PM,37.4,37.4,100,29.46,7.0,NNW,18.4,29.9,0.01,Rain,Light Rain,330,2012-10-30 22:20:00
6:53 PM,37.9,37.9,100,29.49,8.0,NNW,18.4,32.2,0.01,Rain,Light Rain,340,2012-10-30 22:53:00
7:15 PM,37.4,37.4,100,29.48,10.0,NNW,18.4,26.5,0.01,Rain,Light Rain,340,2012-10-30 23:15:00
7:53 PM,37.4,37.4,100,29.48,3.0,NNW,18.4,24.2,N/A,,Overcast,330,2012-10-30 23:53:00
8:53 PM,37.0,37.0,100,29.51,3.0,NW,16.1,25.3,0.00,,Light Drizzle,320,2012-10-31 00:53:00
9:03 PM,37.4,37.4,100,29.48,2.5,NNW,15.0,25.3,0.00,,Light Drizzle,330,2012-10-31 01:03:00
9:22 PM,37.4,37.4,100,29.48,4.0,NW,17.3,23.0,0.00,,Light Drizzle,320,2012-10-31 01:22:00
9:48 PM,37.4,37.4,100,29.49,2.5,NW,16.1,25.3,0.00,,Light Drizzle,320,2012-10-31 01:48:00
9:53 PM,37.0,37.0,100,29.51,2.5,NW,16.1,25.3,0.00,,Light Drizzle,320,2012-10-31 01:53:00
10:24 PM,37.4,35.6,93,29.49,3.0,NW,15.0,24.2,0.00,,Light Drizzle,320,2012-10-31 02:24:00
10:43 PM,37.4,35.6,93,29.49,2.5,NW,12.7,23.0,0.00,,Light Drizzle,310,2012-10-31 02:43:00
10:53 PM,37.0,36.0,96,29.51,2.5,NW,19.6,25.3,0.00,,Light Drizzle,320,2012-10-31 02:53:00
11:53 PM,36.0,36.0,100,29.50,2.5,NW,17.3,23.0,0.00,,Light Drizzle,310,2012-10-31 03:53:00